This is the latest recevied weather packets stored in our database for station/object NN3A-3. If no packets are shown the sender has not sent any weather packets the latest 10 day(s).
| Time | Temp. | Humidity | Pressure | Rain* | Wind** | Luminosity | Snow |
|---|---|---|---|---|---|---|---|
| 1777823076 | 12.78° C | 65% | 1016.4 hPa | 0 mm | - | - | - |
| 1777822476 | 11.67° C | 66% | 1016.4 hPa | 0 mm | - | - | - |
| 1777822176 | 13.33° C | 66% | 1016.1 hPa | 0 mm | - | - | - |
| 1777821876 | 12.78° C | 67% | 1016.4 hPa | 0 mm | - | - | - |
| 1777821577 | 12.78° C | 65% | 1016.4 hPa | 0 mm | - | - | - |
| 1777821277 | 11.67° C | 66% | 1016.4 hPa | 0 mm | - | - | - |
| 1777820977 | 12.22° C | 64% | 1016.4 hPa | 0 mm | - | - | - |
| 1777820678 | 11.67° C | 66% | 1016.4 hPa | 0 mm | - | - | - |
| 1777820377 | 11.67° C | 67% | 1016.4 hPa | 0 mm | - | - | - |
| 1777819778 | 11.11° C | 68% | 1016.4 hPa | 0 mm | - | - | - |
| 1777819480 | 11.11° C | 68% | 1016.4 hPa | 0 mm | - | - | - |
| 1777818878 | 10.56° C | 68% | 1016.4 hPa | 0 mm | - | - | - |
| 1777818578 | 10.56° C | 68% | 1016.4 hPa | 0 mm | - | - | - |
| 1777818277 | 10° C | 68% | 1016.4 hPa | 0 mm | - | - | - |
| 1777817978 | 11.11° C | 69% | 1016.4 hPa | 0 mm | - | - | - |
| 1777817678 | 10° C | 71% | 1016.4 hPa | 0 mm | - | - | - |
| 1777817078 | 10° C | 69% | 1016.4 hPa | 0 mm | - | - | - |
| 1777816779 | 10.56° C | 72% | 1016.4 hPa | 0 mm | - | - | - |
| 1777816478 | 10° C | 72% | 1016.4 hPa | 0 mm | - | - | - |
| 1777816179 | 10.56° C | 72% | 1016.4 hPa | 0 mm | - | - | - |
| 1777815879 | 8.33° C | 75% | 1016.4 hPa | 0 mm | - | - | - |
| 1777815280 | 9.44° C | 74% | 1016.4 hPa | 0 mm | - | - | - |
| 1777814980 | 10° C | 73% | 1016.4 hPa | 0 mm | - | - | - |
| 1777814680 | 10.56° C | 73% | 1016.4 hPa | 0 mm | - | - | - |
| 1777814380 | 10° C | 75% | 1016.4 hPa | 0 mm | - | - | - |
* Rain latest hour (hover to see other rain measurements)
** Current wind speed in m/s (hover to see current wind gust speed)